Location: Lecco
(45.8566°N, 9.3977°E)
Time: 12:34:41
(UTC+02:00)

S-56A Canister/Altair - All Passes

Search period start: 07 August 2020 00:00
Search period end: 17 August 2020 00:00
Orbit: 633 x 2499 km, 38.9° (Epoch: 06 August)

Date Brightness Start Highest point End Pass type
(mag) Time Alt. Az. Time Alt. Az. Time Alt. Az.
07 Aug - 07:57:54 10° SSW 08:04:47 34° SE 08:14:28 10° E daylight
07 Aug - 09:59:44 10° WSW 10:08:43 59° S 10:21:46 10° E daylight
07 Aug - 12:03:14 10° W 12:14:01 59° S 12:28:20 10° ESE daylight
07 Aug - 14:07:57 10° W 14:19:25 39° SSW 14:32:40 10° SSE daylight
07 Aug - 16:16:19 10° W 16:23:43 16° SW 16:31:21 10° SSW daylight
08 Aug - 07:25:51 10° SSW 07:32:03 29° SE 07:40:38 10° E daylight
08 Aug - 09:27:16 10° WSW 09:35:37 56° SSE 09:47:58 10° E daylight
08 Aug - 11:30:31 10° W 11:40:41 60° S 11:54:41 10° ESE daylight
08 Aug - 13:34:54 10° W 13:46:03 41° SSW 13:59:30 10° SE daylight
08 Aug - 15:42:15 10° W 15:50:34 18° SW 15:59:20 10° S daylight
09 Aug - 06:53:55 10° SSW 06:59:24 25° SE 07:06:45 10° E daylight
09 Aug - 08:54:51 10° WSW 09:02:37 53° SSE 09:14:11 10° E daylight
09 Aug - 10:57:51 10° W 11:07:25 60° S 11:21:00 10° ESE daylight
09 Aug - 13:01:57 10° W 13:12:43 44° SSW 13:26:13 10° SE daylight
09 Aug - 15:08:31 10° W 15:17:23 21° SW 15:27:02 10° S daylight
10 Aug - 06:22:07 10° S 06:26:49 20° SE 06:32:50 10° E daylight
10 Aug - 08:22:31 10° SW 08:29:42 49° SSE 08:40:26 10° E daylight
10 Aug - 10:25:16 10° W 10:34:13 60° S 10:47:16 10° ESE daylight
10 Aug - 12:29:06 10° W 12:39:24 46° SSW 12:52:50 10° SE daylight
10 Aug - 14:35:01 10° W 14:44:11 23° SW 14:54:29 10° S daylight
11 Aug - 05:50:35 10° S 05:54:18 16° SE 05:58:48 10° E daylight
11 Aug - 07:50:14 10° SW 07:56:52 44° SSE 08:06:43 10° E daylight
11 Aug - 09:52:44 10° WSW 10:01:05 59° S 10:13:33 10° ESE daylight
11 Aug - 11:56:19 10° W 12:06:08 47° SSW 12:19:22 10° SE daylight
11 Aug - 14:01:43 10° W 14:10:58 25° SW 14:21:44 10° S daylight
12 Aug - 05:19:31 10° SSE 05:21:49 12° SE 05:24:23 10° ESE visible
12 Aug - 07:18:01 10° SW 07:24:07 40° SSE 07:33:02 10° E daylight
12 Aug - 09:20:15 10° WSW 09:28:03 58° S 09:39:49 10° ESE daylight
12 Aug - 11:23:38 10° W 11:32:55 49° SSW 11:45:51 10° SE daylight
12 Aug - 13:28:34 10° W 13:37:45 27° SW 13:48:50 10° SSE daylight
13 Aug - 06:45:51 10° SW 06:51:27 35° SSE 06:59:25 10° E daylight
13 Aug - 08:47:50 10° WSW 08:55:05 56° S 09:06:07 10° ESE daylight
13 Aug - 10:51:01 10° W 10:59:45 50° SSW 11:12:16 10° SE daylight
13 Aug - 12:55:33 10° W 13:04:34 29° SSW 13:15:49 10° SSE daylight
14 Aug - 06:13:46 10° SSW 06:18:51 30° SSE 06:25:49 10° E daylight
14 Aug - 08:15:28 10° WSW 08:22:12 54° S 08:32:26 10° E daylight
14 Aug - 10:18:27 10° W 10:26:40 51° SSW 10:38:40 10° ESE daylight
14 Aug - 12:22:39 10° W 12:31:24 31° SSW 12:42:40 10° SSE daylight
14 Aug - 14:33:27 10° SW 14:35:38 11° SW 14:37:54 10° SW daylight
15 Aug - 05:41:46 10° SSW 05:46:18 25° SSE 05:52:16 10° E visible
15 Aug - 07:43:08 10° WSW 07:49:23 51° S 07:58:49 10° E daylight
15 Aug - 09:45:57 10° W 09:53:37 51° S 10:05:04 10° ESE daylight
15 Aug - 11:49:50 10° W 11:58:16 32° SSW 12:09:26 10° SSE daylight
15 Aug - 13:58:24 10° WSW 14:02:34 12° SW 14:07:05 10° SSW daylight
16 Aug - 05:09:51 10° SSW 05:13:48 21° SE 05:18:44 10° E visible
16 Aug - 07:10:50 10° WSW 07:16:39 47° SSE 07:25:16 10° E daylight
16 Aug - 09:13:29 10° W 09:20:40 52° S 09:31:27 10° ESE daylight
16 Aug - 11:17:08 10° W 11:25:11 34° SSW 11:36:08 10° SSE daylight
16 Aug - 13:24:25 10° WSW 13:29:32 14° SW 13:35:13 10° SSW daylight
